Big Bear Station Historical Data
Daily Summary for February 10, 2017 Units:  English    Metric   Both
« Previous Day
Next Day »
Daily Weekly Monthly Yearly Custom
  High: Low: Average:
Temperature: 50.9 °F 36.7 °F 42.9 °F
Dew Point: 37.0 °F 23.4 °F 28.8 °F
Humidity: 97 % 35 % 60 %
Wind Speed: 7.3 mph 0.0 mph 1.9 mph
Wind Gust: -999.0 mph - -
Wind:- - SSW
Pressure: 30.19 in 30.11 in -
Precipitation: 0.11 in    
Historical Graphs
 
 
Tabular Data for February 10, 2017
Time Temperature Dew Point Pressure Wind Wind Speed Wind Gust Humidity Rainfall Rate (Hourly)
00:12 38.1 °F 31.8 °F 30.19 in Calm   -999.0 mph 78 % 0 in
00:27 37.4 °F 31.8 °F 30.18 in NE 1.7 mph -999.0 mph 80 % 0 in
00:43 37.8 °F 31.2 °F 30.18 in South 2.7 mph -999.0 mph 77 % 0 in
00:58 37.2 °F 30.7 °F 30.18 in Calm   -999.0 mph 77 % 0 in
01:13 39.0 °F 31.7 °F 30.17 in SSW 1.7 mph -999.0 mph 75 % 0 in
01:29 39.2 °F 31.6 °F 30.17 in Calm   -999.0 mph 74 % 0 in
01:44 40.3 °F 31.3 °F 30.17 in Calm   -999.0 mph 70 % 0 in
01:59 40.6 °F 29.8 °F 30.16 in NNE 2.2 mph -999.0 mph 65 % 0 in
02:14 40.8 °F 29.2 °F 30.16 in NNW 2.2 mph -999.0 mph 63 % 0 in
02:29 40.8 °F 28.8 °F 30.16 in Calm   -999.0 mph 62 % 0 in
02:45 40.3 °F 28.3 °F 30.16 in Calm   -999.0 mph 62 % 0 in
03:00 40.8 °F 28.8 °F 30.16 in West 1.1 mph -999.0 mph 62 % 0 in
03:15 40.8 °F 29.6 °F 30.16 in NW 2.2 mph -999.0 mph 64 % 0 in
03:30 41.2 °F 29.2 °F 30.16 in Calm   -999.0 mph 62 % 0 in
03:45 40.5 °F 28.1 °F 30.16 in Calm   -999.0 mph 61 % 0 in
04:01 40.1 °F 27.3 °F 30.16 in Calm   -999.0 mph 60 % 0 in
04:16 40.1 °F 26.9 °F 30.16 in Calm   -999.0 mph 59 % 0 in
04:31 40.8 °F 26.3 °F 30.16 in WSW 1.7 mph -999.0 mph 56 % 0 in
04:46 40.5 °F 25.6 °F 30.16 in WNW 1.7 mph -999.0 mph 55 % 0 in
05:01 39.9 °F 24.1 °F 30.16 in Calm   -999.0 mph 53 % 0 in
05:17 39.6 °F 25.2 °F 30.16 in WNW 1.7 mph -999.0 mph 56 % 0 in
05:32 39.9 °F 25.0 °F 30.16 in Calm   -999.0 mph 55 % 0 in
05:47 39.7 °F 25.3 °F 30.16 in SSW 1.7 mph -999.0 mph 56 % 0 in
06:02 39.9 °F 25.9 °F 30.16 in South 2.2 mph -999.0 mph 57 % 0 in
06:17 39.7 °F 25.3 °F 30.15 in SSW 1.7 mph -999.0 mph 56 % 0 in
06:33 39.9 °F 25.5 °F 30.15 in Calm   -999.0 mph 56 % 0 in
06:48 40.5 °F 26.5 °F 30.16 in SSW 1.1 mph -999.0 mph 57 % 0 in
07:03 41.2 °F 25.4 °F 30.16 in ESE 2.7 mph -999.0 mph 53 % 0 in
07:18 43.0 °F 26.1 °F 30.16 in SW 1.7 mph -999.0 mph 51 % 0 in
07:34 43.0 °F 26.6 °F 30.16 in West 2.2 mph -999.0 mph 52 % 0 in
07:49 45.0 °F 26.5 °F 30.17 in South 4.2 mph -999.0 mph 48 % 0 in
08:04 45.7 °F 26.6 °F 30.16 in WSW 1.1 mph -999.0 mph 47 % 0 in
08:19 46.8 °F 26.0 °F 30.16 in South 2.7 mph -999.0 mph 44 % 0 in
08:34 47.3 °F 24.8 °F 30.17 in South 2.7 mph -999.0 mph 41 % 0 in
08:50 47.8 °F 25.2 °F 30.16 in SW 2.2 mph -999.0 mph 41 % 0 in
09:05 49.1 °F 24.6 °F 30.16 in WSW 4.2 mph -999.0 mph 38 % 0 in
09:21 49.6 °F 25.6 °F 30.16 in South 6.8 mph -999.0 mph 39 % 0 in
09:36 50.0 °F 26.0 °F 30.16 in WNW 2.2 mph -999.0 mph 39 % 0 in
09:51 50.2 °F 25.6 °F 30.17 in ESE 2.2 mph -999.0 mph 38 % 0 in
10:06 49.3 °F 26.0 °F 30.17 in SW 1.7 mph -999.0 mph 40 % 0 in
10:22 49.5 °F 26.2 °F 30.17 in SSW 3.2 mph -999.0 mph 40 % 0 in
10:37 49.3 °F 27.2 °F 30.17 in ENE 5.3 mph -999.0 mph 42 % 0 in
10:52 49.1 °F 27.0 °F 30.17 in SSW 3.7 mph -999.0 mph 42 % 0 in
11:08 48.7 °F 26.0 °F 30.17 in West 3.2 mph -999.0 mph 41 % 0 in
11:23 49.8 °F 25.8 °F 30.17 in South 2.2 mph -999.0 mph 39 % 0 in
11:38 49.5 °F 24.9 °F 30.17 in ESE 1.1 mph -999.0 mph 38 % 0 in
11:54 48.7 °F 25.4 °F 30.17 in South 3.7 mph -999.0 mph 40 % 0 in
12:09 48.4 °F 25.2 °F 30.16 in WNW 3.2 mph -999.0 mph 40 % 0 in
12:24 49.5 °F 24.3 °F 30.16 in SSW 3.2 mph -999.0 mph 37 % 0 in
12:40 50.0 °F 23.4 °F 30.15 in WSW 2.7 mph -999.0 mph 35 % 0 in
12:55 50.2 °F 24.9 °F 30.13 in South 3.7 mph -999.0 mph 37 % 0 in
13:10 50.9 °F 25.5 °F 30.13 in SW 1.1 mph -999.0 mph 37 % 0 in
13:25 50.7 °F 25.4 °F 30.13 in SSW 6.8 mph -999.0 mph 37 % 0 in
13:41 49.8 °F 25.2 °F 30.12 in SSW 3.7 mph -999.0 mph 38 % 0 in
13:56 49.6 °F 26.9 °F 30.12 in SSW 2.2 mph -999.0 mph 41 % 0 in
14:11 49.5 °F 26.2 °F 30.12 in SW 4.2 mph -999.0 mph 40 % 0 in
14:26 49.3 °F 26.6 °F 30.12 in ENE 2.2 mph -999.0 mph 41 % 0 in
14:42 48.6 °F 27.1 °F 30.13 in SSE 7.3 mph -999.0 mph 43 % 0 in
14:57 48.9 °F 27.4 °F 30.11 in SW 4.2 mph -999.0 mph 43 % 0 in
15:12 49.5 °F 27.3 °F 30.11 in NW 3.7 mph -999.0 mph 42 % 0 in
15:27 48.9 °F 25.6 °F 30.11 in SSW 1.7 mph -999.0 mph 40 % 0 in
15:42 48.0 °F 26.0 °F 30.11 in West 1.1 mph -999.0 mph 42 % 0 in
15:58 47.1 °F 27.9 °F 30.11 in East 1.7 mph -999.0 mph 47 % 0 in
16:13 45.3 °F 28.7 °F 30.12 in South 2.7 mph -999.0 mph 52 % 0 in
16:28 44.8 °F 27.8 °F 30.12 in WNW 1.7 mph -999.0 mph 51 % 0 in
16:43 43.7 °F 28.6 °F 30.12 in South 1.7 mph -999.0 mph 55 % 0 in
16:58 42.8 °F 28.6 °F 30.12 in South 1.7 mph -999.0 mph 57 % 0 in
17:14 42.3 °F 28.1 °F 30.12 in SSE 1.1 mph -999.0 mph 57 % 0 in
17:29 41.9 °F 28.2 °F 30.12 in SE 1.7 mph -999.0 mph 58 % 0 in
17:44 41.4 °F 29.0 °F 30.12 in Calm   -999.0 mph 61 % 0 in
17:59 40.8 °F 29.2 °F 30.12 in ESE 1.7 mph -999.0 mph 63 % 0 in
18:14 40.5 °F 28.9 °F 30.12 in SSW 1.1 mph -999.0 mph 63 % 0 in
18:30 40.5 °F 29.7 °F 30.12 in South 2.7 mph -999.0 mph 65 % 0 in
18:46 39.7 °F 31.1 °F 30.12 in West 1.1 mph -999.0 mph 71 % 0 in
19:01 39.4 °F 31.8 °F 30.12 in SW 1.1 mph -999.0 mph 74 % 0 in
19:16 39.0 °F 32.1 °F 30.12 in Calm   -999.0 mph 76 % 0 in
19:31 38.7 °F 32.4 °F 30.11 in NNW 1.1 mph -999.0 mph 78 % 0 in
19:47 39.0 °F 33.0 °F 30.13 in West 2.2 mph -999.0 mph 79 % 0 in
20:02 39.4 °F 32.5 °F 30.13 in WSW 1.7 mph -999.0 mph 76 % 0 in
20:17 38.8 °F 32.8 °F 30.13 in SW 3.2 mph -999.0 mph 79 % 0 in
20:33 37.6 °F 33.5 °F 30.13 in Calm   -999.0 mph 85 % 0 in
20:48 37.0 °F 34.1 °F 30.13 in Calm   -999.0 mph 89 % 0 in
21:04 36.7 °F 34.0 °F 30.13 in Calm   -999.0 mph 90 % 0 in
21:19 36.7 °F 34.9 °F 30.12 in Calm   -999.0 mph 93 % 0 in
21:34 36.7 °F 35.1 °F 30.12 in Calm   -999.0 mph 94 % 0 in
21:49 36.7 °F 35.4 °F 30.12 in Calm   -999.0 mph 95 % 0 in
22:04 37.8 °F 37.0 °F 30.13 in SSE 3.2 mph -999.0 mph 97 % 0 in
22:20 37.4 °F 36.6 °F 30.13 in South 4.2 mph -999.0 mph 97 % 0 in
22:35 37.2 °F 36.4 °F 30.13 in Calm   -999.0 mph 97 % 0 in
22:50 37.6 °F 36.8 °F 30.13 in NNW 6.3 mph -999.0 mph 97 % 0 in
23:05 37.6 °F 36.8 °F 30.11 in West 1.1 mph -999.0 mph 97 % 0 in
23:21 37.2 °F 36.4 °F 30.11 in NNW 2.2 mph -999.0 mph 97 % 0 in
23:36 37.2 °F 36.2 °F 30.11 in Calm   -999.0 mph 96 % 0 in
23:51 37.0 °F 36.0 °F 30.11 in WSW 2.2 mph -999.0 mph 96 % 0 in
Big Bear CA Weather
Compliments of Weather Underground - 1.5 mb